Lapse_Rate
5.9 6.1 6.4 6.5 6.5 6.1 5.5 5.8 6.0 6.1 5.8 5.9 5.7 5.8 5.8 5.6 6.0 5.9 5.9 5.9 5.7 5.5 5.7 5.6 5.6 5.5 5.4 5.3 5.3 5.3 5.3 5.5 5.6 5.4 5.2 5.3 5.4 5.4 5.4 5.6 5.6 5.4 5.2 5.2 5.1 5.2 5.3 5.1 5.0
6.2 6.3 6.6 6.7 6.5 6.2 5.4 5.7 5.9 6.1 6.2 6.1 5.9 5.7 5.8 5.6 5.7 5.9 5.9 5.8 5.7 5.6 5.6 5.4 5.6 5.4 5.2 5.2 5.2 5.3 5.2 5.5 5.4 5.4 5.2 5.1 5.2 5.4 5.5 5.3 5.3 5.3 5.2 5.2 5.1 5.1 5.3 5.2 5.2
6.6 6.5 6.8 6.6 6.3 6.1 5.6 5.7 5.9 6.1 5.9 5.8 5.7 5.8 5.5 5.7 6.1 5.8 6.0 5.9 5.8 5.7 5.6 5.4 5.4 5.3 5.1 5.1 5.1 5.1 5.0 5.4 5.4 5.1 5.3 5.2 5.2 5.3 5.4 5.3 5.3 5.2 5.3 5.2 5.3 5.2 5.2 5.2 5.2
6.5 7.0 6.9 6.5 6.3 6.0 5.9 6.1 6.0 6.2 6.0 5.7 5.6 5.8 5.8 5.8 5.7 6.1 5.9 5.9 5.9 5.9 5.7 5.6 5.4 5.1 5.1 5.1 5.2 5.0 4.9 5.1 5.2 5.1 5.1 5.2 5.1 5.3 5.3 5.3 5.2 5.2 5.4 5.3 5.2 5.3 5.3 5.2 5.3
6.9 7.1 6.9 6.8 6.5 6.2 5.9 6.0 6.2 6.4 6.3 6.2 5.8 5.7 5.9 6.0 6.1 5.9 5.8 5.6 5.7 5.8 5.7 5.8 5.6 5.2 5.2 5.2 5.2 5.2 5.1 5.0 5.3 5.0 5.0 5.1 5.2 5.3 5.2 5.2 5.2 5.2 5.2 5.5 5.3 5.2 5.3 5.2 5.1
7.1 7.0 6.8 6.7 6.5 6.6 6.2 6.1 6.2 6.1 5.9 5.8 5.9 5.8 5.8 5.8 6.0 5.8 5.7 5.8 5.8 5.8 5.6 5.7 5.6 5.3 5.4 5.4 5.3 5.4 5.3 5.3 5.3 5.2 5.0 4.9 4.8 5.0 5.1 5.1 5.2 5.2 5.3 5.4 5.4 5.4 5.2 5.2 5.0
6.8 6.9 6.4 6.6 6.6 6.6 6.5 6.3 6.1 6.2 6.1 6.0 6.0 6.0 5.8 5.7 5.7 5.4 5.4 5.8 5.8 6.0 6.0 5.8 5.6 5.5 5.7 5.5 5.4 5.4 5.4 5.5 5.3 5.2 5.2 5.0 4.9 5.0 5.0 5.2 5.1 5.2 5.2 5.3 5.3 5.4 5.4 5.3 5.3
6.7 6.6 6.4 6.5 6.7 6.4 6.4 6.2 6.3 6.2 6.1 6.0 6.1 6.3 5.9 5.6 5.6 5.6 5.6 6.2 6.1 6.6 6.0 5.9 5.7 5.5 5.7 5.5 5.5 5.4 5.4 5.6 5.4 5.4 5.2 5.2 4.9 4.9 4.9 5.2 5.2 5.3 5.2 5.4 5.6 5.3 5.4 5.4 5.4
6.8 6.6 6.6 6.5 6.4 6.4 6.2 6.1 6.1 6.1 6.0 5.9 6.0 6.1 5.7 5.7 5.6 5.8 6.2 6.2 6.6 6.6 6.3 6.2 5.9 5.7 5.9 5.6 5.5 5.4 5.5 5.5 5.4 5.2 5.2 5.1 5.1 5.1 5.2 5.2 5.3 5.4 5.3 5.4 5.6 5.5 5.3 5.4 5.4
6.7 6.6 6.9 6.6 6.2 6.4 6.2 6.1 6.0 5.7 5.8 5.9 5.8 5.6 5.6 5.7 5.7 5.9 6.4 6.8 6.4 6.4 6.4 6.3 6.0 6.0 5.8 6.0 5.4 5.4 5.4 5.3 5.3 5.3 5.1 5.0 4.9 5.1 5.0 5.1 5.2 5.3 5.4 5.6 5.4 5.4 5.4 5.3 5.3
6.4 6.9 7.0 7.0 6.4 6.5 6.5 6.0 5.8 5.7 5.6 5.6 5.6 5.7 5.9 5.7 5.7 5.9 6.0 6.3 6.2 6.0 6.1 6.4 6.1 6.2 6.0 5.8 5.6 5.6 5.4 5.3 5.1 5.3 5.0 4.9 5.1 5.2 5.2 5.1 5.2 5.3 5.4 5.5 5.5 5.4 5.4 5.4 5.5
6.7 6.8 7.0 7.1 6.7 6.5 6.4 5.8 5.7 5.8 5.6 5.6 5.7 5.9 5.8 5.5 5.8 6.3 6.4 6.6 6.4 6.0 6.2 6.3 6.2 6.2 6.2 6.0 6.0 5.8 5.6 5.3 5.1 5.3 5.3 5.2 5.2 5.0 4.9 5.0 5.1 5.2 5.4 5.4 5.5 5.5 5.4 5.5 5.6
6.9 7.0 6.8 6.9 6.7 6.5 6.4 6.0 5.9 5.9 5.5 5.5 5.7 5.8 5.6 5.8 6.0 6.3 6.1 6.6 6.4 6.4 6.2 6.3 6.3 6.2 6.1 6.1 5.9 5.8 5.5 5.3 5.3 5.4 5.5 5.4 5.3 5.1 5.0 5.0 5.2 5.3 5.3 5.5 5.5 5.3 5.1 5.4 5.6
7.0 7.1 6.7 6.5 6.5 6.5 6.2 5.9 6.0 5.7 5.6 5.7 5.8 5.9 5.7 5.8 6.1 6.3 6.4 6.3 6.3 6.3 6.2 6.5 6.3 6.1 6.1 6.0 5.8 5.8 5.4 5.5 5.4 5.6 5.7 5.6 5.6 5.4 5.2 5.3 5.4 5.6 5.7 5.8 5.7 5.5 5.3 5.3 5.3
6.5 6.6 6.6 6.6 6.3 6.4 6.2 6.0 5.9 5.6 5.8 5.5 5.5 5.8 5.9 5.8 5.7 6.0 6.2 6.0 6.4 6.1 6.2 6.1 6.1 6.1 6.2 5.8 5.7 5.7 5.6 5.5 5.6 5.9 5.7 5.7 5.8 5.7 5.5 5.7 5.9 6.1 6.1 5.9 5.8 5.5 5.3 5.4 5.5
6.6 6.5 6.9 7.1 6.7 6.6 6.4 6.1 6.1 5.8 5.8 5.4 5.6 5.7 5.7 5.6 5.5 5.5 5.6 6.1 5.9 6.0 6.3 6.0 6.1 6.0 6.1 5.8 5.7 5.6 5.6 5.4 5.8 6.0 5.7 5.8 6.1 5.8 5.7 5.9 5.9 6.0 6.0 5.9 5.9 6.0 5.8 5.8 5.8
7.1 7.3 7.4 7.5 7.2 6.8 6.5 6.3 6.5 6.1 6.1 5.7 5.8 5.7 5.6 5.4 5.6 5.3 5.6 5.9 6.2 6.4 6.3 6.0 6.4 6.2 6.2 5.9 5.6 5.6 5.4 5.3 5.4 5.7 5.7 5.7 6.0 5.8 5.8 5.9 6.0 6.0 5.9 6.1 6.1 6.2 6.1 6.1 6.1
7.6 7.4 7.3 7.2 7.0 6.6 6.4 6.5 6.6 6.3 6.3 6.1 5.8 5.7 5.6 5.8 5.9 6.1 6.5 6.5 6.5 6.2 6.2 6.2 6.1 6.1 6.0 5.9 5.7 5.6 5.5 5.1 4.9 5.5 5.7 5.5 5.8 5.8 5.8 5.9 6.0 6.0 5.9 6.0 6.1 6.2 6.0 5.9 6.0
7.2 7.1 7.1 6.7 6.7 6.5 6.5 6.5 6.8 6.5 6.3 6.5 6.1 6.0 6.3 6.2 6.6 6.6 6.5 6.3 6.3 6.2 6.2 6.1 6.1 6.1 6.0 5.9 5.9 5.9 5.7 5.1 5.0 5.4 5.4 5.4 5.6 5.7 5.8 5.9 6.0 5.8 5.8 6.0 6.2 6.2 6.0 5.8 5.7
7.3 7.0 7.2 7.0 6.6 6.6 6.6 6.5 6.9 7.0 6.7 6.4 6.6 6.4 5.9 6.2 6.6 6.5 6.5 6.4 6.4 6.4 6.4 6.3 6.2 6.2 6.2 6.0 6.0 5.8 5.5 5.2 5.3 5.1 5.1 5.5 5.5 5.6 5.8 5.9 5.9 5.8 5.8 5.9 6.0 6.1 6.0 5.8 5.8
7.6 7.4 7.3 7.1 6.8 6.7 6.9 6.7 6.6 6.9 6.7 6.5 6.6 6.8 6.2 6.1 6.1 6.3 6.3 6.3 6.4 6.5 6.5 6.4 6.3 6.2 6.1 5.9 6.0 5.7 5.4 5.2 5.0 5.1 5.3 5.5 5.5 5.5 5.7 5.8 5.9 5.9 6.0 5.8 5.9 6.0 6.0 5.8 6.0
7.6 7.6 7.1 7.2 7.0 6.9 7.0 7.2 7.0 6.8 6.8 6.9 6.5 6.6 6.6 6.4 6.3 6.2 6.4 6.5 6.4 6.3 6.4 6.4 6.4 6.4 6.2 6.0 6.0 5.8 5.5 5.3 5.3 5.3 5.4 5.5 5.5 5.6 5.7 6.0 6.0 5.9 5.9 5.8 6.0 6.0 6.0 5.9 5.9
7.9 7.5 7.1 7.0 7.0 7.1 7.0 6.7 7.3 7.1 6.9 7.2 7.1 6.9 6.6 6.4 6.3 6.5 6.4 6.5 6.2 6.0 6.0 6.2 6.4 6.2 6.2 6.1 5.9 5.8 5.6 5.4 5.2 5.1 5.2 5.7 5.5 5.7 5.8 6.1 6.1 6.1 6.2 6.0 5.8 5.9 6.1 6.1 6.0
7.9 7.5 7.3 7.1 7.0 7.3 6.6 6.7 7.7 7.5 7.6 7.4 7.2 7.2 7.0 6.7 6.7 6.3 6.3 6.3 6.3 6.3 6.1 5.9 5.8 5.9 5.9 5.9 5.8 5.7 5.5 5.5 5.4 5.4 5.6 5.7 5.6 5.7 5.9 6.1 6.0 6.1 6.3 6.3 6.1 5.8 5.8 5.8 5.8
7.5 7.6 7.9 8.0 7.7 7.8 6.8 6.6 8.3 8.0 7.9 7.6 7.4 7.1 7.1 7.0 6.8 6.7 6.4 6.4 6.3 6.2 6.1 6.0 5.9 5.8 5.7 5.6 5.7 5.9 5.8 5.7 5.8 5.8 5.9 6.0 5.9 5.9 5.9 5.9 6.0 5.9 5.6 5.9 6.0 5.9 5.8 6.1 6.2
7.7 7.6 7.7 7.9 7.9 7.6 7.0 6.9 7.9 7.9 8.0 8.0 7.8 7.4 7.2 6.8 6.7 6.7 6.6 6.8 6.4 6.2 6.1 6.2 6.1 5.9 5.9 5.7 5.4 5.5 5.7 5.6 5.6 5.7 5.9 6.1 6.2 6.1 6.0 5.8 5.7 5.6 5.6 5.6 6.1 6.2 6.2 6.4 6.2
7.7 7.3 7.4 7.3 6.7 6.6 7.6 8.3 7.8 7.7 7.9 7.8 7.7 7.6 7.3 7.1 7.0 6.7 6.5 6.7 6.5 6.3 6.2 6.1 6.2 6.2 6.0 6.0 5.7 5.5 5.7 5.7 5.7 5.7 5.8 6.0 6.1 6.1 6.0 5.9 5.7 5.8 6.0 6.0 6.0 6.1 6.2 6.4 6.5
7.8 7.8 7.9 7.7 7.8 8.4 8.3 8.3 8.2 7.8 7.9 8.1 7.9 7.6 7.5 7.3 7.1 6.9 6.7 6.5 6.5 6.4 6.4 6.2 6.3 6.3 6.3 6.1 5.9 5.8 5.9 5.8 5.8 6.0 6.0 6.0 6.0 5.9 5.9 6.0 6.1 6.1 5.9 6.0 6.0 6.2 6.2 6.2 6.3
8.2 7.9 7.9 7.6 7.7 8.1 8.4 8.8 8.1 8.0 7.7 7.9 8.1 8.0 7.6 7.3 7.1 7.1 7.0 7.0 6.6 6.5 6.5 6.4 6.4 6.4 6.2 6.1 6.2 6.3 6.2 6.2 6.1 5.9 5.9 6.1 6.1 6.0 6.1 6.1 6.0 6.0 6.0 5.8 5.9 6.3 6.4 6.3 6.0
8.2 8.2 8.1 7.9 7.6 7.6 7.6 8.2 8.5 8.1 7.8 7.9 8.0 7.9 7.4 7.2 6.9 6.9 7.4 6.7 7.3 6.7 6.5 6.6 6.5 6.4 6.3 6.4 6.5 6.5 6.3 6.3 6.4 6.2 6.0 6.0 6.1 6.2 6.2 6.0 6.1 5.9 5.9 6.2 6.3 6.2 5.9 5.8 5.7
Wind_Speed
6 3 2 2 1 1 4 5 8 12 10 5 12 2 4 3 0 1 2 7 10 13 12 10 10 10 10 10 10 11 12 12 10 9 11 10 9 10 10 13 10 10 11 11 12 13 13 12 13
6 2 2 1 2 5 5 7 13 7 11 17 9 5 4 2 2 4 10 7 12 13 11 10 9 11 11 11 10 9 11 11 11 9 10 10 9 8 9 12 10 10 10 12 10 12 12 12 13
5 2 2 2 1 4 6 9 9 12 16 13 5 5 3 2 3 8 1 12 13 12 11 10 9 9 11 11 10 9 9 11 10 10 9 8 8 10 10 9 10 11 10 10 10 10 11 12 13
2 2 1 2 5 4 4 13 16 16 9 3 8 6 4 2 8 2 9 12 13 11 10 10 10 10 10 9 9 9 9 9 9 9 10 8 9 8 8 8 9 7 10 11 10 10 10 11 12
1 1 2 3 4 4 8 14 15 12 8 8 4 5 5 2 1 12 10 10 10 9 10 11 10 10 10 9 8 9 10 9 7 8 8 5 6 8 8 8 9 9 11 10 10 9 8 8 8
2 1 2 3 6 5 7 12 15 8 7 8 6 9 6 4 10 11 10 7 10 9 10 9 10 10 10 9 8 8 8 7 7 5 7 5 5 5 5 7 9 9 9 10 9 10 9 9 7
3 2 4 5 4 2 4 11 6 7 8 5 11 6 4 9 12 10 9 9 9 9 9 9 9 9 10 8 7 8 7 6 6 5 7 5 10 7 5 2 7 8 8 8 8 9 9 7 6
3 1 3 7 2 2 4 5 7 3 4 11 4 4 7 14 12 10 10 9 9 8 8 8 8 8 7 8 7 7 6 5 4 3 12 2 3 4 5 7 3 7 9 9 9 9 8 8 6
2 3 5 3 2 2 6 4 4 4 10 2 3 5 8 17 13 12 10 9 7 7 7 8 8 7 5 4 5 6 5 5 5 6 10 9 5 9 9 4 3 4 9 10 9 8 8 8 8
3 3 2 2 4 6 6 4 4 4 9 3 5 7 18 16 14 14 13 10 9 9 9 7 8 8 6 6 5 4 5 5 4 3 9 11 6 3 4 5 3 4 5 8 9 8 7 6 6
2 3 2 5 10 6 9 5 4 5 6 8 12 18 19 16 12 13 12 11 11 9 8 9 8 8 7 7 7 6 7 7 4 4 6 10 8 8 6 3 2 3 4 5 7 6 4 5 4
4 1 3 6 6 8 7 8 5 1 5 6 12 20 17 15 14 12 11 9 8 8 9 9 10 9 8 8 7 7 7 6 6 6 7 8 7 6 4 3 4 5 5 6 6 5 5 5 4
4 5 4 5 11 10 11 8 5 5 5 8 16 18 17 14 14 13 11 9 9 9 10 9 9 8 9 7 7 7 6 5 8 8 7 9 8 6 6 6 6 8 7 7 7 6 4 4 5
3 4 4 6 8 6 7 4 0 3 6 12 17 15 14 13 13 8 8 10 11 10 8 8 9 9 9 6 7 7 8 9 8 8 8 9 8 6 6 5 5 6 8 7 7 7 6 5 5
1 4 5 6 5 4 7 6 4 7 8 13 14 13 12 11 11 12 13 11 9 7 5 9 9 9 7 7 6 7 9 6 6 5 5 6 6 5 5 5 3 6 8 8 7 8 6 4 6
0 1 3 5 6 3 2 2 5 8 10 14 13 11 11 10 10 12 12 11 8 9 9 9 6 5 7 7 5 4 4 4 4 4 3 4 4 4 4 5 4 7 8 7 6 7 6 5 6
1 1 3 1 2 4 4 4 9 10 11 15 14 13 11 10 13 12 14 12 11 11 10 7 6 8 7 6 4 3 6 5 5 4 4 4 3 3 3 4 4 7 7 6 5 5 6 6 6
2 1 2 2 2 2 4 6 13 13 13 16 15 14 12 14 17 15 15 14 12 10 9 8 8 9 8 4 3 3 4 6 6 5 5 4 3 4 4 4 5 7 5 5 5 5 5 5 5
2 2 1 1 2 3 4 6 12 15 13 14 15 15 14 16 16 15 14 13 13 12 11 11 9 10 7 5 4 4 5 4 4 6 8 7 6 6 5 4 5 6 5 5 6 5 6 5 4
7 3 1 1 0 3 3 5 9 16 16 16 16 16 17 17 15 15 13 13 14 15 14 13 12 10 9 7 4 3 3 3 4 5 5 7 7 6 6 4 3 4 4 6 7 6 4 5 5
9 11 5 1 5 2 3 4 7 10 11 13 15 15 15 16 16 16 15 16 14 15 15 13 12 11 11 10 6 4 2 3 3 2 1 4 7 6 5 5 3 4 3 4 6 7 6 4 5
5 4 7 6 5 0 3 1 5 11 15 14 16 15 16 17 16 15 15 15 15 15 12 12 12 11 10 11 9 8 6 5 2 2 1 2 5 7 7 6 5 5 4 5 6 7 7 5 5
3 1 9 5 3 2 2 3 2 6 13 18 19 19 18 17 17 16 17 17 15 11 10 10 10 10 10 11 10 8 8 6 4 3 3 3 3 5 7 6 7 5 5 6 7 7 8 7 7
11 7 5 3 1 3 3 3 3 6 16 18 18 19 19 18 17 16 17 14 12 9 9 9 10 10 10 11 11 11 10 9 6 5 4 3 3 4 7 6 7 7 6 7 6 8 9 8 8
0 2 2 1 1 2 2 4 6 8 8 13 20 20 20 19 16 16 15 13 11 10 10 9 9 10 11 12 11 12 11 10 10 8 6 4 4 4 4 6 6 6 7 6 6 6 7 8 8
5 1 2 4 3 4 2 5 1 6 3 5 9 14 17 17 16 18 17 16 12 10 9 9 9 10 11 12 12 10 10 8 8 8 6 5 4 5 2 4 5 5 6 6 6 7 7 8 8
5 5 2 1 2 2 2 4 6 6 6 5 6 11 14 14 16 17 14 12 9 10 11 11 11 12 12 13 10 11 11 11 9 10 8 7 6 4 4 5 5 5 5 5 5 6 7 7 8
4 9 2 1 3 5 2 4 0 5 6 7 5 3 7 7 10 10 10 10 9 9 8 9 11 14 12 12 11 10 11 12 11 9 10 9 7 5 4 4 4 4 5 5 6 7 8 8 7
4 3 2 1 1 2 4 3 3 5 3 3 5 7 4 9 10 9 8 7 5 6 7 9 12 13 11 11 11 11 11 11 10 9 10 9 7 4 4 3 2 1 3 5 6 8 9 9 9
3 3 5 4 3 0 3 4 1 4 2 4 5 9 9 8 10 11 7 9 7 5 4 7 6 10 10 9 10 12 12 10 9 8 7 4 3 2 4 5 5 3 4 8 9 9 4 3 4
Wind_Direction
189 175 266 240 193 63 58 58 104 126 141 134 141 147 157 43 99 170 106 146 151 147 158 165 156 144 142 139 135 133 139 139 134 132 129 141 146 151 142 139 125 125 120 116 112 110 113 116 123
147 134 255 318 63 88 79 124 128 147 140 134 104 89 59 73 63 114 136 159 158 150 154 151 151 147 139 144 133 136 132 135 137 131 136 130 140 129 129 127 129 108 113 119 114 115 117 115 120
144 210 299 14 39 70 112 149 133 126 146 148 120 64 95 144 99 152 281 148 153 156 159 153 157 143 150 135 134 137 132 135 129 125 126 132 137 133 130 122 123 123 119 108 118 120 123 121 120
167 170 186 59 54 68 91 145 137 129 132 138 123 95 106 23 145 192 139 150 155 157 164 152 154 146 137 135 138 136 135 131 139 134 124 132 131 135 131 124 124 132 126 123 114 121 127 131 131
58 164 63 79 67 59 91 131 148 148 146 146 174 127 107 114 8 138 137 151 155 154 159 158 167 153 148 139 132 129 137 141 128 137 132 129 122 137 132 123 124 141 130 122 118 109 118 127 137
106 274 60 45 41 55 89 149 153 149 146 145 124 131 136 149 155 145 135 139 154 160 161 158 167 159 149 149 137 131 133 136 140 130 124 126 104 84 108 130 130 134 127 123 118 120 125 128 128
78 51 63 53 38 26 133 155 156 145 149 169 143 123 125 164 153 144 151 154 157 161 166 161 165 168 155 158 156 143 143 148 145 143 106 58 61 27 32 110 134 130 127 127 127 135 137 137 130
101 94 80 39 353 31 147 134 127 146 120 124 142 153 164 173 162 153 152 157 166 172 172 169 173 174 170 169 165 162 164 163 152 129 86 55 134 357 32 299 157 139 134 127 125 127 144 152 146
125 73 91 94 352 333 160 163 76 83 137 137 134 156 154 148 147 147 155 163 169 176 180 183 182 187 178 173 178 188 181 200 203 169 139 172 234 165 244 342 331 160 146 141 134 125 126 139 153
60 89 119 71 326 265 182 128 140 149 150 109 107 113 138 145 158 156 169 172 193 180 187 185 192 199 173 201 188 207 220 233 232 206 160 181 206 233 229 237 258 138 161 153 139 132 119 150 166
99 122 173 19 337 241 149 114 129 163 192 192 178 155 152 152 162 166 180 176 185 181 185 186 193 204 188 205 198 218 222 233 225 216 181 184 191 224 266 197 271 189 150 159 158 154 159 141 182
126 150 172 18 4 128 124 119 102 41 324 280 169 157 152 158 167 171 177 183 176 189 188 181 193 199 203 213 212 227 233 239 247 227 201 203 211 209 235 261 214 226 208 192 185 179 165 167 174
158 172 82 58 78 97 101 81 108 51 36 122 148 155 161 166 170 177 179 171 184 195 185 191 189 196 207 215 225 239 243 240 254 256 235 227 223 219 228 236 235 225 216 217 209 201 201 203 200
119 110 77 66 112 112 102 84 164 82 110 132 156 159 169 172 174 179 195 201 199 209 194 195 201 201 204 214 230 250 259 262 273 270 254 236 238 239 236 233 229 224 211 210 219 209 212 214 218
131 128 151 165 187 126 142 75 71 131 147 147 165 173 174 182 183 198 198 209 202 205 189 208 213 214 212 224 235 255 263 258 274 279 250 230 229 231 234 241 234 211 204 200 204 212 210 226 219
190 249 201 178 177 143 198 101 154 153 160 164 175 189 190 197 203 202 213 215 219 207 203 209 206 223 230 229 233 268 266 265 274 281 255 240 213 201 227 245 222 198 191 194 201 205 210 219 226
156 299 302 267 244 131 215 140 165 168 174 176 186 201 201 208 223 226 221 216 215 217 220 224 219 225 236 236 221 238 269 269 271 286 269 272 253 213 237 212 209 189 188 184 192 200 217 210 211
187 229 221 277 176 222 186 139 159 177 185 188 194 212 205 210 222 219 222 218 219 229 243 248 246 246 230 229 217 231 261 266 254 259 249 262 240 214 227 204 189 181 188 181 195 211 202 217 215
264 207 70 289 147 225 213 191 182 182 189 194 205 214 223 224 222 226 237 237 240 243 245 244 246 242 210 193 215 235 249 251 248 239 236 237 234 219 222 207 180 164 177 191 193 209 208 206 205
231 234 177 134 282 207 203 226 193 189 200 203 202 208 221 229 226 231 237 245 245 249 249 245 238 231 211 204 208 205 218 231 251 237 251 224 231 231 228 211 189 186 167 182 192 204 212 225 202
238 233 195 335 149 133 234 208 186 204 208 210 223 218 221 227 233 229 227 231 235 239 239 239 234 221 210 205 191 172 194 251 242 229 266 217 215 223 234 242 196 182 195 191 193 203 220 242 212
277 197 200 161 189 60 324 279 217 205 210 211 219 219 226 225 228 240 238 231 230 239 241 236 226 214 205 197 203 201 217 244 262 319 309 267 224 230 233 237 213 200 191 193 201 207 221 217 247
359 228 148 121 108 182 190 239 141 188 220 220 215 217 221 227 222 228 235 240 239 238 232 232 226 220 208 197 204 203 221 236 246 250 275 267 236 228 219 213 203 202 217 203 202 203 219 228 244
124 108 101 102 231 243 108 268 212 184 220 216 221 222 221 218 223 224 235 242 240 230 228 222 214 218 203 200 201 206 211 222 229 231 249 250 242 219 218 220 219 211 217 210 211 217 219 230 246
278 187 285 220 216 0 148 246 265 221 205 215 210 220 225 218 216 214 219 222 224 221 223 216 207 218 209 206 208 212 217 217 224 233 240 245 252 244 234 229 229 219 230 229 230 223 237 234 237
184 273 319 328 329 306 164 232 168 205 146 215 231 227 227 225 218 223 220 223 215 220 218 217 215 227 210 207 209 211 216 219 225 231 240 243 240 245 219 224 238 269 245 244 238 239 244 247 242
156 212 62 269 121 263 222 259 256 236 249 214 239 219 211 212 211 215 217 228 220 207 214 216 213 219 220 214 208 210 209 221 227 226 225 235 235 239 235 219 213 232 242 245 256 263 265 266 270
242 141 175 216 301 324 253 270 266 167 193 164 141 165 184 189 193 195 208 214 208 211 213 224 232 233 226 218 214 212 219 217 225 229 230 229 237 228 229 224 229 224 209 216 226 239 238 242 248
154 198 128 150 282 284 308 339 202 198 162 131 125 129 144 152 158 147 154 142 155 171 197 222 231 239 234 223 218 217 218 219 218 223 237 239 242 228 230 203 184 185 226 234 234 237 240 238 253
267 261 220 248 198 202 309 289 337 244 148 141 132 122 120 125 128 134 150 134 149 177 214 234 249 251 244 230 218 221 224 215 219 223 240 245 237 175 103 98 97 100 229 235 226 232 242 252 329